METEOR M2-3 DEB

Satellite information

Favourite Embed

Satellite Type and Status

DEBRISIN ORBIT

Key statistics

Satellite METEOR M2-3 DEB at a glance.

Uptime

900

Days in orbit

Revolutions

≈ 14.2

Per day

Orbit

SSO

Sun Synchronous Orbit

Inclination

98.6

Latest

Satellite identification and parameters

Extended collection of information and parameters for METEOR M2-3 DEB.

Object identification

Identified? True

Debris? True

Object name: METEOR M2-3 DEB

International designator: 2023-091BC

Object number (NORAD): 60448

Object ID (CCSDS): 60448

Country: COMMONWEALTH OF INDEPENDENT STATES (CIS)

Current information (Y/N): Y

RCS size: SMALL

Orbital parameters

Period: 101.06 minutes

Inclination: 98.6397 deg

SMA: 7186.999 km

Apoapsis: 811.653 km

Periapsis: 806.074 km

RAAN: 39.2756 deg

Eccentricy: 0.00038815

Argument of periapsis: 9.1093 deg

Mean anomaly: 351.0156 deg

Mean motion: 14.24890254 rev/day

Mean motion (dot): 0.00000546 rev/day2

B* drag term: 0.00025236082 1/REarth

Two-line elements (TLE)

Creation date: Dec. 11, 2025, 10:54 a.m.

Reference frame: TEME

Reference center: EARTH

Epoch: Dec. 11, 2025, 3:16 a.m. UTC

TLE line 0: 0 METEOR M2-3 DEB

TLE line 1: 1 60448U 23091BC 25345.13677985 .00000546 00000-0 25236-3 0 9998

TLE line 2: 2 60448 98.6397 39.2756 0003882 9.1093 351.0156 14.24890254 92046

Live tracking on map

Real-time ground track for satellite METEOR M2-3 DEB.

In-orbit conjunctions

A list of the most updated potential collisions computed for object METEOR M2-3 DEB.

Target Orbit TCA Probability of collision Miss distance Type
COSMOS 1275 DEB LEO 2025-05-26 12:24:44 0.0003880268 84.0 (m) DEBRIS
FENGYUN 1C DEB SSO 2025-02-22 08:59:48 0.0002202879 290.0 (m) DEBRIS
COSMOS 397 DEB * LEO 2024-12-22 01:28:38 0.006357194 53.0 (m) DEBRIS
FENGYUN 1C DEB SSO 2024-10-23 05:11:08 0.000149851 559.0 (m) DEBRIS
CZ-2C DEB SSO 2024-09-05 23:08:56 0.0004966353 683.0 (m) DEBRIS

Associated space launch

Meteor-M satellites are a new generation of Russian meteorological satellites to replace the Meteor-3M series. The first two Meteor-M satellites will feature following instruments: - MSU-MR - Low-resolution Multispectral Scanner for global and regional for cloud cover mapping - KMSS-2 - multichannel scanning unit for Earth surface monitoring - MTVZA-GYa - imager/sounder for Atmospheric temperature and humidity profiles, sea surface wind - IKFS-2 advanced IR sounder for Atmospheric temperature and humidity profiles - BRK SSPD - Data Collection System - RK-SM-MKA - Modified Rescue Radio complex One initial Meteor-M 1 satellite was built, followed by the improved Meteor-M 2 series satellites. 42 cubesats from various Russian and international organizations will be launched as co-passengers.

METEOR M2-3 DEB was lifted into orbit during the mission ‘Soyuz 2.1b/Fregat-M | Meteor-M No.2-3 & others’, on board a Soyuz 2.1b/Fregat-M space rocket.

The launch took place on June 27, 2023, 11:34 a.m. from Cosmodrome Site 1S.

For more information about the launch, click the button.

Launch to space Soyuz 2.1b/Fregat-M | Meteor-M No.2-3 & others
Soyuz 2.1b/Fregat-M | Meteor-M No.2-3 & others

Agency: N/A

Status: Launch Successful

Launch date: June 27, 2023, 11:34 a.m. UTC

Rocket: Soyuz 2.1b/Fregat-M

Launch pad: Cosmodrome Site 1S

Location: Vostochny Cosmodrome, Siberia, Russian Federation

...

Latest news about this satellite

News about space launch
Launch Roundup: Virgin Galactic performs crewed suborbital mission; SpaceX launches Euclid

Four launches are planned for the week of June 24 to July 1. The Russians opened the launches, with a Meteor weather satellite riding a Soyuz rocket on Tuesday, June 27, while Virgin Galactic flew its Galactic 01 crewed suborbital mission Thursday, June 2...


Newsletter sign-up

Weekly statistics, charts and insights to help you stay on top of the space industry.